Time,TemperatureF,DewpointF,PressureIn,WindDirection,WindDirectionDegrees,WindSpeedMPH,WindSpeedGustMPH,Humidity,HourlyPrecipIn,Conditions,Clouds,dailyrainin,SolarRadiationWatts/m^2,SoftwareType,DateUTC
2013-02-23 00:01:00,41.0,27.0,-100.00,NNE,27,8.0,15.0,56,0.00,,,0.00,0.000000,,2013-02-23 06:01:00,
2013-02-23 00:11:00,41.0,27.0,-100.00,NNE,27,8.0,15.0,56,0.00,,,0.00,0.000000,,2013-02-23 06:11:00,
2013-02-23 00:22:00,41.0,27.0,-100.00,NNE,27,8.0,15.0,56,0.00,,,0.00,0.000000,,2013-02-23 06:22:00,
2013-02-23 00:31:00,41.0,27.0,-100.00,NNE,27,8.0,15.0,56,0.00,,,0.00,0.000000,,2013-02-23 06:31:00,
2013-02-23 01:01:00,40.0,27.0,-100.00,NNE,24,10.0,16.0,59,0.00,,,0.00,0.000000,,2013-02-23 07:01:00,
2013-02-23 01:11:00,40.0,27.0,-100.00,NNE,24,10.0,16.0,59,0.00,,,0.00,0.000000,,2013-02-23 07:11:00,
2013-02-23 01:21:00,40.0,27.0,-100.00,NNE,24,10.0,16.0,59,0.00,,,0.00,0.000000,,2013-02-23 07:21:00,
2013-02-23 01:32:00,40.0,27.0,-100.00,NNE,24,10.0,16.0,59,0.00,,,0.00,0.000000,,2013-02-23 07:32:00,
2013-02-23 02:01:00,40.0,27.0,-100.00,NNE,21,10.0,15.0,59,0.00,,,0.00,0.000000,,2013-02-23 08:01:00,
2013-02-23 02:11:00,40.0,27.0,-100.00,NNE,21,10.0,15.0,59,0.00,,,0.00,0.000000,,2013-02-23 08:11:00,
2013-02-23 02:21:00,40.0,27.0,-100.00,NNE,21,10.0,15.0,59,0.00,,,0.00,0.000000,,2013-02-23 08:21:00,
2013-02-23 02:31:00,40.0,27.0,-100.00,NNE,21,10.0,15.0,59,0.00,,,0.00,0.000000,,2013-02-23 08:31:00,
2013-02-23 02:53:00,39.0,26.0,-100.00,NNE,27,11.0,19.0,60,0.00,,,0.00,0.000000,,2013-02-23 08:53:00,
2013-02-23 03:01:00,39.0,26.0,-100.00,NNE,27,11.0,19.0,60,0.00,,,0.00,0.000000,,2013-02-23 09:01:00,
2013-02-23 03:11:00,39.0,26.0,-100.00,NNE,27,11.0,19.0,60,0.00,,,0.00,0.000000,,2013-02-23 09:11:00,
2013-02-23 03:21:00,39.0,26.0,-100.00,NNE,27,11.0,19.0,60,0.00,,,0.00,0.000000,,2013-02-23 09:21:00,
2013-02-23 03:31:00,39.0,26.0,-100.00,NNE,27,11.0,19.0,60,0.00,,,0.00,0.000000,,2013-02-23 09:31:00,
2013-02-23 04:01:00,38.0,26.0,-100.00,NNE,25,9.0,14.0,62,0.00,,,0.00,0.000000,,2013-02-23 10:01:00,
2013-02-23 04:11:00,38.0,26.0,-100.00,NNE,25,9.0,14.0,62,0.00,,,0.00,0.000000,,2013-02-23 10:11:00,
2013-02-23 04:21:00,38.0,26.0,-100.00,NNE,25,9.0,14.0,62,0.00,,,0.00,0.000000,,2013-02-23 10:21:00,
2013-02-23 04:31:00,38.0,26.0,-100.00,NNE,25,9.0,14.0,62,0.00,,,0.00,0.000000,,2013-02-23 10:31:00,
2013-02-23 05:02:00,37.0,26.0,-100.00,ENE,61,4.0,13.0,65,0.00,,,0.00,0.000000,,2013-02-23 11:02:00,
2013-02-23 05:11:00,37.0,26.0,-100.00,ENE,61,4.0,13.0,65,0.00,,,0.00,0.000000,,2013-02-23 11:11:00,
2013-02-23 05:21:00,37.0,26.0,-100.00,ENE,61,4.0,13.0,65,0.00,,,0.00,0.000000,,2013-02-23 11:21:00,
2013-02-23 05:32:00,37.0,26.0,-100.00,ENE,61,4.0,13.0,65,0.00,,,0.00,0.000000,,2013-02-23 11:32:00,
2013-02-23 06:02:00,36.0,26.0,-100.00,SE,124,1.0,5.0,68,0.00,,,0.00,0.000000,,2013-02-23 12:02:00,
2013-02-23 06:11:00,36.0,26.0,-100.00,SE,124,1.0,5.0,68,0.00,,,0.00,0.000000,,2013-02-23 12:11:00,
2013-02-23 06:21:00,36.0,26.0,-100.00,SE,124,1.0,5.0,68,0.00,,,0.00,0.000000,,2013-02-23 12:21:00,
2013-02-23 06:32:00,36.0,26.0,-100.00,SE,124,1.0,5.0,68,0.00,,,0.00,0.000000,,2013-02-23 12:32:00,
2013-02-23 07:01:00,36.0,26.0,-100.00,NNE,24,8.0,10.0,66,0.00,,,0.00,0.000000,,2013-02-23 13:01:00,
2013-02-23 07:11:00,36.0,26.0,-100.00,NNE,24,8.0,10.0,66,0.00,,,0.00,0.000000,,2013-02-23 13:11:00,
2013-02-23 07:22:00,36.0,26.0,-100.00,NNE,24,8.0,10.0,66,0.00,,,0.00,0.000000,,2013-02-23 13:22:00,
2013-02-23 07:32:00,36.0,26.0,-100.00,NNE,24,8.0,10.0,66,0.00,,,0.00,0.000000,,2013-02-23 13:32:00,
2013-02-23 08:02:00,36.0,26.0,-100.00,NNE,14,8.0,12.0,67,0.00,,,0.00,4.000000,,2013-02-23 14:02:00,
2013-02-23 08:11:00,36.0,26.0,-100.00,NNE,14,8.0,12.0,67,0.00,,,0.00,4.000000,,2013-02-23 14:11:00,
2013-02-23 08:21:00,36.0,26.0,-100.00,NNE,14,8.0,12.0,67,0.00,,,0.00,4.000000,,2013-02-23 14:21:00,
2013-02-23 08:32:00,36.0,26.0,-100.00,NNE,14,8.0,12.0,67,0.00,,,0.00,4.000000,,2013-02-23 14:32:00,
2013-02-23 09:02:00,41.0,26.0,-100.00,NNE,21,7.0,13.0,54,0.00,,,0.00,139.000000,,2013-02-23 15:02:00,
2013-02-23 09:11:00,41.0,26.0,-100.00,NNE,21,7.0,13.0,54,0.00,,,0.00,139.000000,,2013-02-23 15:11:00,
2013-02-23 09:22:00,41.0,26.0,-100.00,NNE,21,7.0,13.0,54,0.00,,,0.00,139.000000,,2013-02-23 15:22:00,
2013-02-23 09:32:00,41.0,26.0,-100.00,NNE,21,7.0,13.0,54,0.00,,,0.00,139.000000,,2013-02-23 15:32:00,
2013-02-23 10:01:00,46.0,27.0,-100.00,ENE,74,3.0,13.0,47,0.00,,,0.00,354.000000,,2013-02-23 16:01:00,
2013-02-23 10:11:00,46.0,27.0,-100.00,ENE,74,3.0,13.0,47,0.00,,,0.00,354.000000,,2013-02-23 16:11:00,
2013-02-23 10:21:00,46.0,27.0,-100.00,ENE,74,3.0,13.0,47,0.00,,,0.00,354.000000,,2013-02-23 16:21:00,
2013-02-23 10:31:00,46.0,27.0,-100.00,ENE,74,3.0,13.0,47,0.00,,,0.00,354.000000,,2013-02-23 16:31:00,
2013-02-23 11:01:00,51.0,29.0,-100.00,SSW,195,6.0,9.0,42,0.00,,,0.00,541.000000,,2013-02-23 17:01:00,
2013-02-23 11:11:00,51.0,29.0,-100.00,SSW,195,6.0,9.0,42,0.00,,,0.00,541.000000,,2013-02-23 17:11:00,
2013-02-23 11:21:00,51.0,29.0,-100.00,SSW,195,6.0,9.0,42,0.00,,,0.00,541.000000,,2013-02-23 17:21:00,
2013-02-23 11:31:00,51.0,29.0,-100.00,SSW,195,6.0,9.0,42,0.00,,,0.00,541.000000,,2013-02-23 17:31:00,
2013-02-23 12:01:00,56.0,32.0,-100.00,SW,218,5.0,10.0,40,0.00,,,0.00,686.000000,,2013-02-23 18:01:00,
2013-02-23 12:12:00,56.0,32.0,-100.00,SW,218,5.0,10.0,40,0.00,,,0.00,686.000000,,2013-02-23 18:12:00,
2013-02-23 12:22:00,56.0,32.0,-100.00,SW,218,5.0,10.0,40,0.00,,,0.00,686.000000,,2013-02-23 18:22:00,
2013-02-23 12:32:00,56.0,32.0,-100.00,SW,218,5.0,10.0,40,0.00,,,0.00,686.000000,,2013-02-23 18:32:00,
2013-02-23 13:01:00,61.0,32.0,-100.00,WSW,258,7.0,14.0,34,0.00,,,-99.99,763.000000,,2013-02-23 19:01:00,
2013-02-23 13:11:00,61.0,32.0,-100.00,WSW,258,7.0,14.0,34,0.00,,,-99.99,763.000000,,2013-02-23 19:11:00,
2013-02-23 13:21:00,61.0,32.0,-100.00,WSW,258,7.0,14.0,34,0.00,,,-99.99,763.000000,,2013-02-23 19:21:00,
2013-02-23 13:32:00,61.0,32.0,-100.00,WSW,258,7.0,14.0,34,0.00,,,-99.99,763.000000,,2013-02-23 19:32:00,
2013-02-23 14:01:00,63.0,29.0,-100.00,WNW,295,12.0,19.0,28,0.00,,,0.00,780.000000,,2013-02-23 20:01:00,
2013-02-23 14:11:00,63.0,29.0,-100.00,WNW,295,12.0,19.0,28,0.00,,,0.00,780.000000,,2013-02-23 20:11:00,
2013-02-23 14:21:00,63.0,29.0,-100.00,WNW,295,12.0,19.0,28,0.00,,,0.00,780.000000,,2013-02-23 20:21:00,
2013-02-23 14:32:00,63.0,29.0,-100.00,WNW,295,12.0,19.0,28,0.00,,,0.00,780.000000,,2013-02-23 20:32:00,
2013-02-23 15:01:00,64.0,27.0,-100.00,WNW,299,13.0,21.0,25,0.00,,,0.00,727.000000,,2013-02-23 21:01:00,
2013-02-23 15:11:00,64.0,27.0,-100.00,WNW,299,13.0,21.0,25,0.00,,,0.00,727.000000,,2013-02-23 21:11:00,
2013-02-23 15:22:00,64.0,27.0,-100.00,WNW,299,13.0,21.0,25,0.00,,,0.00,727.000000,,2013-02-23 21:22:00,
2013-02-23 15:32:00,64.0,27.0,-100.00,WNW,299,13.0,21.0,25,0.00,,,0.00,727.000000,,2013-02-23 21:32:00,
2013-02-23 16:01:00,66.0,28.0,-100.00,NW,305,11.0,19.0,24,0.00,,,0.00,608.000000,,2013-02-23 22:01:00,
2013-02-23 16:11:00,66.0,28.0,-100.00,NW,305,11.0,19.0,24,0.00,,,0.00,608.000000,,2013-02-23 22:11:00,
2013-02-23 16:22:00,66.0,28.0,-100.00,NW,305,11.0,19.0,24,0.00,,,0.00,608.000000,,2013-02-23 22:22:00,
2013-02-23 16:31:00,66.0,28.0,-100.00,NW,305,11.0,19.0,24,0.00,,,0.00,608.000000,,2013-02-23 22:31:00,
2013-02-23 16:52:00,67.0,27.0,-100.00,NW,315,7.0,16.0,22,0.00,,,0.00,446.000000,,2013-02-23 22:52:00,
2013-02-23 17:01:00,67.0,27.0,-100.00,NW,315,7.0,16.0,22,0.00,,,0.00,446.000000,,2013-02-23 23:01:00,
2013-02-23 17:11:00,67.0,27.0,-100.00,NW,315,7.0,16.0,22,0.00,,,0.00,446.000000,,2013-02-23 23:11:00,
2013-02-23 17:21:00,67.0,27.0,-100.00,NW,315,7.0,16.0,22,0.00,,,0.00,446.000000,,2013-02-23 23:21:00,
2013-02-23 17:31:00,67.0,27.0,-100.00,NW,315,7.0,16.0,22,0.00,,,0.00,446.000000,,2013-02-23 23:31:00,
2013-02-23 18:01:00,67.0,25.0,-100.00,ENE,68,2.0,16.0,20,0.00,,,0.00,247.000000,,2013-02-24 00:01:00,
2013-02-23 18:11:00,67.0,25.0,-100.00,ENE,68,2.0,16.0,20,0.00,,,0.00,247.000000,,2013-02-24 00:11:00,
2013-02-23 18:22:00,67.0,25.0,-100.00,ENE,68,2.0,16.0,20,0.00,,,0.00,247.000000,,2013-02-24 00:22:00,
2013-02-23 18:32:00,67.0,25.0,-100.00,ENE,68,2.0,16.0,20,0.00,,,0.00,247.000000,,2013-02-24 00:32:00,
2013-02-23 19:01:00,59.0,31.0,-100.00,ENE,66,7.0,10.0,34,0.00,,,0.00,57.000000,,2013-02-24 01:01:00,
2013-02-23 19:11:00,59.0,31.0,-100.00,ENE,66,7.0,10.0,34,0.00,,,0.00,57.000000,,2013-02-24 01:11:00,
2013-02-23 19:22:00,59.0,31.0,-100.00,ENE,66,7.0,10.0,34,0.00,,,0.00,57.000000,,2013-02-24 01:22:00,
2013-02-23 19:31:00,59.0,31.0,-100.00,ENE,66,7.0,10.0,34,0.00,,,0.00,57.000000,,2013-02-24 01:31:00,
2013-02-23 20:01:00,56.0,31.0,-100.00,NE,41,7.0,10.0,38,0.00,,,0.00,0.000000,,2013-02-24 02:01:00,
2013-02-23 20:11:00,56.0,31.0,-100.00,NE,41,7.0,10.0,38,0.00,,,0.00,0.000000,,2013-02-24 02:11:00,
2013-02-23 20:21:00,56.0,31.0,-100.00,NE,41,7.0,10.0,38,0.00,,,0.00,0.000000,,2013-02-24 02:21:00,
2013-02-23 20:32:00,56.0,31.0,-100.00,NE,41,7.0,10.0,38,0.00,,,0.00,0.000000,,2013-02-24 02:32:00,
2013-02-23 21:02:00,51.0,33.0,-100.00,East,81,6.0,16.0,49,0.00,,,0.00,0.000000,,2013-02-24 03:02:00,
2013-02-23 21:11:00,51.0,33.0,-100.00,East,81,6.0,16.0,49,0.00,,,0.00,0.000000,,2013-02-24 03:11:00,
2013-02-23 21:21:00,51.0,33.0,-100.00,East,81,6.0,16.0,49,0.00,,,0.00,0.000000,,2013-02-24 03:21:00,
2013-02-23 21:32:00,51.0,33.0,-100.00,East,81,6.0,16.0,49,0.00,,,0.00,0.000000,,2013-02-24 03:32:00,
2013-02-23 22:01:00,48.0,31.0,-100.00,East,85,8.0,14.0,52,0.00,,,0.00,0.000000,,2013-02-24 04:01:00,
2013-02-23 22:11:00,48.0,31.0,-100.00,East,85,8.0,14.0,52,0.00,,,0.00,0.000000,,2013-02-24 04:11:00,
2013-02-23 22:21:00,48.0,31.0,-100.00,East,85,8.0,14.0,52,0.00,,,0.00,0.000000,,2013-02-24 04:21:00,
2013-02-23 22:31:00,48.0,31.0,-100.00,East,85,8.0,14.0,52,0.00,,,0.00,0.000000,,2013-02-24 04:31:00,
2013-02-23 23:01:00,47.0,32.0,-100.00,East,82,6.0,12.0,55,0.00,,,-99.99,0.000000,,2013-02-24 05:01:00,
2013-02-23 23:11:00,47.0,32.0,-100.00,East,82,6.0,12.0,55,0.00,,,-99.99,0.000000,,2013-02-24 05:11:00,
2013-02-23 23:22:00,47.0,32.0,-100.00,East,82,6.0,12.0,55,0.00,,,-99.99,0.000000,,2013-02-24 05:22:00,
2013-02-23 23:32:00,47.0,32.0,-100.00,East,82,6.0,12.0,55,0.00,,,-99.99,0.000000,,2013-02-24 05:32:00,